Location: McMath-Hulbert Observatory
(42.6964°N, 83.3187°W)
Time: 14:53:19
(UTC-05:00)

Daily predictions for brighter satellites

Satellite Brightness Start Highest point End
(mag) Time Altitude Azimuth Time Altitude Azimuth Time Altitude Azimuth
IRS-1A Rocket 4.2 17:22:10 10° SSE 17:27:40 81° ENE 17:33:11 10° NNW
Cosmos 2154 Rocket 4.0 17:22:31 10° N 17:28:46 76° E 17:35:01 10° SSE
IDEFIX/ARIANE 42P 2.9 17:26:50 10° SE 17:31:44 44° ENE 17:36:40 10° N
Iridium 2 4.4 17:30:05 10° NNW 17:33:50 60° W 17:37:35 10° S
BREEZE M DEB (TANK) 3.3 17:34:30 10° WNW 17:36:54 30° N 17:41:54 10° ENE
CZ-2C R/B 3.9 17:33:10 10° N 17:37:37 74° WNW 17:42:03 10° SSW
Okean 1 Rocket 3.1 17:33:52 10° N 17:38:14 87° W 17:42:33 10° S
Cosmos 1536 2.9 17:35:01 10° N 17:39:02 58° E 17:43:03 10° SSE
COSMO-SKYMED 1 4.0 17:40:28 10° NE 17:43:31 18° E 17:46:32 10° SE
Cosmos 1461 3.2 17:39:40 10° NW 17:43:36 65° WSW 17:47:31 10° SSE
APEX 4.4 17:37:26 10° SSW 17:44:18 76° ESE 17:49:46 10° NNE
Cosmos 1544 Rocket 4.4 17:41:30 10° NNE 17:45:25 29° ENE 17:49:20 10° SE
Meteor 1-11 Rocket 4.1 17:41:53 10° NNW 17:47:26 71° W 17:52:54 10° S
Cosmos 1975 Rocket 3.1 17:44:48 10° S 17:49:01 58° E 17:53:16 10° NNE
Cosmos 372 Rocket 4.1 17:44:38 10° S 17:49:48 62° ESE 17:55:00 10° NNE
USA 234 3.6 17:43:24 10° NE 17:49:52 65° NW 17:56:18 10° WSW
MSX 4.1 17:45:19 10° SE 17:50:48 47° ENE 17:56:17 10° N
SMAP 3.0 17:47:21 10° SSE 17:51:58 68° ENE 17:56:36 10° N
AQUARIUS 4.1 17:48:13 10° SSE 17:52:40 69° ENE 17:57:10 10° N
Okean 3 3.6 17:49:25 10° S 17:53:42 85° W 17:58:01 10° N
SJ-12 3.8 17:49:57 10° SSE 17:54:01 77° ENE 17:58:08 10° N
Cosmos 2263 Rocket 3.4 17:50:13 10° SW 17:55:28 41° WNW 18:00:48 10° NNE
Thor Agena Rocket 3.5 17:51:02 10° NNE 17:56:13 72° ESE 18:01:27 10° S
NOSS 3-1 (A) 4.5 17:49:05 10° NW 17:56:40 70° WSW 18:04:57 10° SSE
CZ-3B DEB 2.6 17:55:01 10° S 17:58:23 40° ESE 18:05:05 13° NE
Cosmos 1125 Rocket 3.8 17:53:41 10° SSW 17:58:58 75° WNW 18:04:19 10° NNE
CZ-4 R/B 1.7 17:56:08 10° S 18:00:20 74° W 18:04:31 10° NNW
Cosmos 1269 Rocket 4.4 17:56:46 10° NNW 18:02:03 68° WSW 18:07:19 10° S
Cosmos 1536 Rocket 4.5 18:01:50 10° SSE 18:05:37 28° E 18:09:13 11° NNE
ATLAS 2AS CENTAUR R/B 3.1 18:00:56 10° NNW 18:08:57 57° NE 18:16:28 10° SE
Cosmos 1812 3.4 18:05:51 10° SSE 18:09:18 32° E 18:12:08 14° NNE
SL-8 Rocket 3.9 18:03:15 10° N 18:09:26 72° E 18:15:34 10° SSE
Cosmos 2251 Rocket 3.8 18:07:02 10° N 18:12:14 47° ENE 18:17:20 10° SE
YAOGAN 1 2.7 18:08:08 10° S 18:12:27 79° WSW 18:16:49 10° NNW
Abrixas 3.9 18:15:07 10° WNW 18:17:42 26° N 18:18:36 22° NNE
Cosmos 2366 rocket 4.0 18:12:35 10° N 18:18:55 63° E 18:25:10 10° SSE
Cosmos 1975 3.5 18:15:33 10° NNE 18:19:15 32° ENE 18:22:53 10° SE
Cosmos 2218 Rocket 3.9 18:13:00 10° N 18:19:19 72° E 18:25:32 10° SSE
Cosmos 2181 Rocket 4.3 18:13:25 10° SSW 18:19:44 73° W 18:26:11 10° N
OTV 4 2.4 18:18:52 10° WSW 18:21:23 24° S 18:23:24 13° SE
Cosmos 1844 Rocket 2.6 18:16:33 10° SSW 18:22:07 78° ESE 18:27:30 11° NNE
Cosmos 1959 Rocket 4.4 18:19:48 10° N 18:25:59 81° E 18:32:13 10° S
Cosmos 1844 3.6 18:23:37 10° SSW 18:29:07 66° ESE 18:33:29 17° NNE
SL-27 R/B 2.4 18:25:36 10° NNW 18:29:17 74° ENE 18:32:56 10° SSE
GEOS 3 Rocket 3.5 18:26:01 10° SE 18:31:07 78° NE 18:36:15 10° NW
Meteor 2-19 Rocket 4.4 18:25:23 10° N 18:31:29 87° W 18:37:31 10° S
SKYMED 2 3.6 18:27:57 12° NNE 18:31:52 59° E 18:36:08 10° S
Cosmos 1455 Rocket 2.9 18:31:01 10° N 18:35:26 78° E 18:39:51 10° S
ISS -3.4 18:34:51 10° WSW 18:38:08 86° NW 18:38:49 54° NE
COSMOS 2406 4.3 18:39:52 10° NW 18:45:17 46° WSW 18:50:43 10° S
BREEZE-M R/B 4.2 18:34:51 10° SW 18:45:17 63° SSE 18:47:38 35° E
Cosmos 2278 Rocket 2.2 18:41:59 10° S 18:47:29 56° ESE 18:50:04 31° NE
Cosmos 1809 Rocket 4.4 18:45:28 10° N 18:51:36 63° E 18:57:39 10° SSE
Cosmos 1821 Rocket 4.3 18:49:02 10° N 19:01:32 - SE 18:54:32 37° ENE
Cosmos 1484 Rocket 3.4 18:51:57 10° S 18:55:40 55° W 18:59:21 10° NNW
CZ-2C R/B 4.5 18:51:48 10° SSW 18:56:05 29° W 19:00:30 10° NW
Cosmos 1238 Rocket 3.8 19:00:59 10° SW 19:03:42 32° WNW 19:04:44 25° NW
Cosmos 2082 Rocket 2.8 19:06:35 10° NNW 19:10:49 39° NNE 19:10:49 39° NNE
Nadezhda 3 Rocket 3.8 19:09:10 10° S 19:15:20 79° E 19:21:20 11° N
Okean 1 4.1 19:12:24 10° SSW 19:16:21 52° W 19:17:54 32° NNW
COSMO-SKYMED 1 3.8 19:16:32 15° N 19:19:51 41° WNW 19:23:54 10° SW
Cosmos 1833 Rocket 3.6 19:14:48 10° NNW 19:18:13 32° NNE 19:18:13 32° NNE
Meteor 1-28 Rocket 4.3 19:29:51 44° WSW 19:29:51 44° WSW 19:32:58 10° SSW
USA 234 4.5 19:29:59 25° NNE 19:32:08 30° NNW 19:37:40 10° WNW
METEOR-M 4.4 19:32:56 10° S 19:38:14 66° WSW 19:43:34 10° NNW
Cosmos 1346 Rocket 4.4 19:36:07 10° SSW 19:38:33 31° SW 19:38:33 31° SW
NOSS 3-4 (A) 4.5 19:37:45 10° NNW 19:42:42 38° NNE 19:42:42 38° NNE
NOSS 3-4 (C) 4.5 19:37:52 10° NNW 19:42:47 37° NNE 19:42:47 37° NNE
NOSS 3-3 (A) 4.2 19:45:23 10° SW 19:51:33 65° NW 19:52:24 59° NNW
NOSS 3-3 (C) 4.2 19:45:28 10° SW 19:51:39 66° NW 19:52:28 60° NNW
ATLAS 2AS CENTAUR R/B 4.2 19:52:30 10° NW 19:59:41 37° WSW 20:06:25 10° S
FALCON 9 R/B 3.4 19:45:55 10° WSW 20:01:20 47° S 20:01:52 46° S
Timation 2 Rocket 4.5 20:06:11 10° NNW 20:12:54 62° WSW 20:13:13 61° SW
ATLAS 3B CENTAUR R/B 4.3 20:12:41 10° WSW 20:21:43 25° SSW 20:22:04 25° SSW
Cosmos 2278 Rocket 4.1 20:27:25 10° WSW 20:31:56 24° NW 20:31:57 24° NW
CZ-3B DEB 3.9 20:28:17 10° W 20:34:04 47° N 20:34:11 47° N
